Location: Wells
(51.2093°N, 2.6446°W)
Time: 07:32:34
(UTC+01:00)

PCSat - Pass Details

Date: 12 March 2026
Orbit: 780 x 790 km, 67.1° (Epoch: 13 April)

Event Time Altitude Azimuth Distance (km) Brightness Sun altitude
Exits shadow 02:06:38 21° 354° (N) 1,730 11.7 -37.2°
Drops below altitude 10° 02:09:35 10° 25° (NNE) 2,365 12.8 -37.0°
Sets 02:12:32 0° 40° (NE) 3,297 13.8 -36.7°
